Location: Chmeln�
(49.6483°N, 14.9871°E)
Time: 05:40:52
(UTC+00:00)

Cosmos 2251 Rocket - Pass Details

Date: 18 September 2020
Orbit: 765 x 792 km, 74.0° (Epoch: 29 October)

Event Time Altitude Azimuth Distance (km) Brightness Sun altitude
Rises 20:05:57 0° 339° (NNW) 3,302 7.7 -27.5°
Reaches altitude 10° 20:08:27 10° 345° (NNW) 2,368 6.7 -27.8°
Enters shadow 20:12:49 44° 31° (NNE) 1,089 4.3 -28.3°
